Date String (YYYY-MM-DD hh:mm:ss) UTC,Instrument flags,absolute air pressure of the measurement (hPa),sample flow rate (lpm),inlet stack bypass flow (lpm),air temperature of the measurement (°C),ambient temperature measured by the external sensor (°C),aerosol sample conditioner tube jacket temperature (°C),OPC LED temperature (°C),internal box temperature (°C),relative humidity of the measurement (%),span deviation,mass concentration of particles derived from Lorenz-Mie calculation of OPC scattering (μg/m³),mass concentration of particles derived from Lorenz-Mie calculation of OPC scattering (μg/m³),mass concentration of particles derived from Lorenz-Mie calculation of OPC scattering (μg/m³)
DateTimeUTC,F1_M11,P_M11,Q1_M11,Q2_M11,T1_M11,T2_M11,T3_M11,T4_M11,T5_M11,U1_M11,ZSPAN_M11,X0_M11,X2_M11,X1_M11
2023-06-19 14:00:00,SystemResetWarning,0825.6,5.01,000.00,030.1,028.5,000.0,038.6,031.6,17.9,0000.0,0011.89,0004.65,0003.63
2023-06-19 14:01:00,SystemResetWarning,0825.6,5.00,000.00,030.1,028.6,000.0,038.6,031.7,18.5,0000.0,0011.68,0004.64,0003.64
2023-06-19 14:02:00,SystemResetWarning,0825.6,5.00,000.00,030.1,028.6,000.0,038.6,031.7,18.6,0000.0,0011.65,0004.61,0003.63
2023-06-19 14:03:00,SystemResetWarning,0825.6,5.00,000.00,030.1,028.7,000.0,038.6,031.7,18.4,0000.0,0011.14,0004.57,0003.63
2023-06-19 14:04:00,SystemResetWarning,0825.6,4.98,000.00,030.2,027.6,000.0,038.6,031.8,19.7,0000.0,0010.94,0004.59,0003.63
2023-06-19 14:05:00,SystemResetWarning,0825.6,5.00,000.00,030.2,025.5,000.0,038.5,031.7,19.2,0000.0,0011.24,0004.61,0003.64
2023-06-19 14:06:00,SystemResetWarning,0825.6,5.00,000.00,030.1,025.2,000.0,038.5,031.6,19.5,0000.0,0010.97,0004.62,0003.64
2023-06-19 14:07:00,SystemResetWarning,0825.6,5.01,000.00,030.0,025.6,000.0,038.5,031.3,20.9,0000.0,0010.50,0004.68,0003.65
2023-06-19 14:08:00,SystemResetWarning,0825.6,5.00,000.00,029.9,026.0,000.0,038.5,031.2,21.1,0000.0,0010.55,0004.70,0003.66
2023-06-19 14:09:00,SystemResetWarning,0825.6,5.00,000.00,029.9,026.4,000.0,038.5,031.2,22.7,0000.0,0009.99,0004.73,0003.67
2023-06-19 14:10:00,SystemResetWarning,0825.6,5.01,000.00,029.9,026.8,000.0,038.5,031.2,21.3,0000.0,0010.27,0004.76,0003.67
2023-06-19 14:11:00,SystemResetWarning,0825.6,5.00,000.00,029.9,027.1,000.0,038.5,031.3,19.5,0000.0,0010.60,0004.77,0003.66
2023-06-19 14:12:00,SystemResetWarning,0825.7,5.00,000.00,029.9,027.4,000.0,038.5,031.3,22.0,0000.0,0011.03,0004.77,0003.67
2023-06-19 14:13:00,SystemResetWarning,0825.6,5.00,000.00,029.9,027.6,000.0,038.5,031.3,19.2,0000.0,0011.30,0004.78,0003.67
2023-06-19 14:14:00,SystemResetWarning,0825.6,5.00,000.00,029.9,027.8,000.0,038.5,031.3,18.9,0000.0,0011.62,0004.83,0003.68
2023-06-19 14:15:00,SystemResetWarning,0825.6,5.00,000.00,029.9,027.9,000.0,038.5,031.4,20.3,0000.0,0011.67,0004.85,0003.67
2023-06-19 14:16:00,SystemResetWarning,0825.6,4.99,000.00,029.9,028.1,000.0,038.5,031.4,19.4,0000.0,0011.56,0004.79,0003.67
2023-06-19 14:17:00,SystemResetWarning,0825.6,4.99,000.00,029.9,028.2,000.0,038.5,031.4,19.0,0000.0,0011.88,0004.81,0003.69
2023-06-19 14:18:00,SystemResetWarning,0825.6,5.00,000.00,029.9,028.3,000.0,038.5,031.5,18.3,0000.0,0011.83,0004.77,0003.70
2023-06-19 14:19:00,SystemResetWarning,0825.7,5.00,000.00,030.0,028.3,000.0,038.5,031.5,17.7,0000.0,0011.78,0004.75,0003.70
2023-06-19 14:20:00,SystemResetWarning,0825.7,5.00,000.00,030.0,028.4,000.0,038.5,031.5,18.4,0000.0,0011.63,0004.72,0003.70
2023-06-19 14:21:00,SystemResetWarning,0825.7,5.01,000.00,030.0,028.5,000.0,038.5,031.5,18.5,0000.0,0011.44,0004.69,0003.69
2023-06-19 14:22:00,SystemResetWarning,0825.7,5.01,000.00,030.0,028.5,000.0,038.5,031.6,15.7,0000.0,0011.30,0004.71,0003.69
2023-06-19 14:23:00,SystemResetWarning,0825.7,5.00,000.00,030.1,028.5,000.0,038.5,031.6,17.5,0000.0,0011.46,0004.72,0003.68
2023-06-19 14:24:00,SystemResetWarning,0825.7,4.98,000.00,030.1,026.9,000.0,038.5,031.7,18.1,0000.0,0011.41,0004.72,0003.68
2023-06-19 14:25:00,SystemResetWarning,0825.7,5.01,000.00,030.0,025.1,000.0,038.4,031.5,20.0,0000.0,0011.40,0004.70,0003.68
2023-06-19 14:26:00,SystemResetWarning,0825.7,5.01,000.00,030.0,025.4,000.0,038.4,031.4,21.2,0000.0,0011.53,0004.70,0003.69
2023-06-19 14:27:00,SystemResetWarning,0825.7,5.00,000.00,029.9,025.8,000.0,038.4,031.2,22.0,0000.0,0011.48,0004.68,0003.69
2023-06-19 14:28:00,SystemResetWarning,0825.7,4.99,000.00,029.8,026.2,000.0,038.4,031.1,23.5,0000.0,0010.94,0004.65,0003.68
2023-06-19 14:29:00,SystemResetWarning,0825.7,5.00,000.00,029.8,026.6,000.0,038.4,031.1,22.7,0000.0,0010.77,0004.65,0003.67
2023-06-19 14:30:00,SystemResetWarning,0825.7,5.00,000.00,029.8,026.9,000.0,038.4,031.2,22.4,0000.0,0011.00,0004.67,0003.67
2023-06-19 14:31:00,SystemResetWarning,0825.7,5.00,000.00,029.8,027.2,000.0,038.4,031.2,20.8,0000.0,0011.88,0004.68,0003.68
2023-06-19 14:32:00,SystemResetWarning,0825.8,5.00,000.00,029.8,027.5,000.0,038.4,031.2,20.3,0000.0,0012.13,0004.71,0003.68
2023-06-19 14:33:00,SystemResetWarning,0825.8,5.00,000.00,029.8,027.7,000.0,038.4,031.3,20.5,0000.0,0012.16,0004.70,0003.68
2023-06-19 14:34:00,SystemResetWarning,0825.8,5.00,000.00,029.8,027.8,000.0,038.4,031.3,18.8,0000.0,0011.49,0004.67,0003.68
2023-06-19 14:35:00,SystemResetWarning,0825.8,5.00,000.00,029.8,028.0,000.0,038.4,031.4,19.5,0000.0,0011.24,0004.69,0003.69
2023-06-19 14:36:00,SystemResetWarning,0825.8,5.00,000.00,029.9,028.1,000.0,038.4,031.4,20.5,0000.0,0010.92,0004.67,0003.70
2023-06-19 14:37:00,SystemResetWarning,0825.8,5.00,000.00,029.9,028.2,000.0,038.4,031.4,18.2,0000.0,0010.98,0004.66,0003.70
2023-06-19 14:38:00,SystemResetWarning,0825.7,5.00,000.00,029.9,028.3,000.0,038.4,031.5,17.7,0000.0,0011.19,0004.69,0003.70
2023-06-19 14:39:00,SystemResetWarning,0825.8,5.00,000.00,029.9,028.4,000.0,038.4,031.5,17.7,0000.0,0011.18,0004.70,0003.70
2023-06-19 14:40:00,SystemResetWarning,0825.7,4.99,000.00,030.0,027.9,000.0,038.4,031.6,17.5,0000.0,0011.06,0004.69,0003.69
2023-06-19 14:41:00,SystemResetWarning,0825.8,5.00,000.00,029.9,025.8,000.0,038.4,031.4,18.0,0000.0,0010.78,0004.69,0003.69
2023-06-19 14:42:00,SystemResetWarning,0825.7,5.01,000.00,029.9,025.2,000.0,038.3,031.4,17.2,0000.0,0009.91,0004.64,0003.68
2023-06-19 14:43:00,SystemResetWarning,0825.8,5.01,000.00,029.9,025.6,000.0,038.3,031.2,16.6,0000.0,0009.63,0004.58,0003.67
2023-06-19 14:44:00,SystemResetWarning,0825.8,4.99,000.00,029.8,026.0,000.0,038.3,031.0,17.4,0000.0,0010.15,0004.56,0003.67
2023-06-19 14:45:00,SystemResetWarning,0825.8,5.00,000.00,029.7,026.4,000.0,038.3,031.0,16.6,0000.0,0010.75,0004.60,0003.67
2023-06-19 14:46:00,SystemResetWarning,0825.8,5.01,000.00,029.7,026.8,000.0,038.3,031.1,17.5,0000.0,0011.34,0004.59,0003.66
2023-06-19 14:47:00,SystemResetWarning,0825.8,5.01,000.00,029.7,027.1,000.0,038.3,031.1,18.1,0000.0,0012.17,0004.58,0003.66
2023-06-19 14:48:00,SystemResetWarning,0825.8,4.99,000.00,029.7,027.3,000.0,038.3,031.2,18.1,0000.0,0012.87,0004.60,0003.65
2023-06-19 14:49:00,SystemResetWarning,0825.8,4.99,000.00,029.7,027.6,000.0,038.3,031.2,17.9,0000.0,0013.28,0004.60,0003.65
2023-06-19 14:50:00,SystemResetWarning,0825.8,5.01,000.00,029.7,027.8,000.0,038.3,031.2,18.4,0000.0,0014.56,0004.62,0003.65
2023-06-19 14:51:00,SystemResetWarning,0825.8,5.01,000.00,029.8,027.9,000.0,038.3,031.3,18.8,0000.0,0014.83,0004.61,0003.66
2023-06-19 14:52:00,SystemResetWarning,0825.8,5.01,000.00,029.8,028.1,000.0,038.3,031.3,19.6,0000.0,0014.93,0004.60,0003.66
2023-06-19 14:53:00,SystemResetWarning,0825.8,4.99,000.00,029.8,028.2,000.0,038.3,031.3,20.0,0000.0,0015.00,0004.64,0003.67
2023-06-19 14:54:00,SystemResetWarning,0825.8,4.99,000.00,029.8,028.3,000.0,038.3,031.4,18.6,0000.0,0015.00,0004.69,0003.68
2023-06-19 14:55:00,SystemResetWarning,0825.8,4.99,000.00,029.9,028.3,000.0,038.3,031.4,19.6,0000.0,0014.51,0004.70,0003.70
2023-06-19 14:56:00,SystemResetWarning,0825.8,5.00,000.00,029.9,026.8,000.0,038.3,031.5,24.9,0000.0,0014.70,0004.73,0003.71
2023-06-19 14:57:00,SystemResetWarning,0825.7,5.00,000.00,029.9,025.1,000.0,038.2,031.4,32.4,0000.0,0014.07,0004.74,0003.71
2023-06-19 14:58:00,SystemResetWarning,0825.7,5.01,000.00,029.8,025.4,000.0,038.2,031.3,30.7,0000.0,0013.46,0004.81,0003.73
2023-06-19 14:59:00,SystemResetWarning,0825.8,5.01,000.00,029.7,025.8,000.0,038.2,031.1,29.5,0000.0,0014.12,0004.86,0003.76
